Year,Month,Day,Hour,Minute,Value (Times are PST for temperature in C)
2010,04,16,00,00,7.80
2010,04,16,00,01,7.80
2010,04,16,00,02,7.80
2010,04,16,00,03,7.90
2010,04,16,00,04,7.90
2010,04,16,00,05,7.90
2010,04,16,00,06,7.90
2010,04,16,00,07,7.90
2010,04,16,00,08,7.90
2010,04,16,00,09,7.90
2010,04,16,00,10,7.90
2010,04,16,00,11,7.90
2010,04,16,00,12,7.90
2010,04,16,00,13,7.90
2010,04,16,00,14,7.90
2010,04,16,00,15,7.90
2010,04,16,00,16,8.00
2010,04,16,00,17,8.00
2010,04,16,00,18,8.00
2010,04,16,00,19,8.00
2010,04,16,00,20,8.00
2010,04,16,00,21,8.10
2010,04,16,00,22,8.10
2010,04,16,00,23,8.10
2010,04,16,00,24,8.20
2010,04,16,00,25,8.20
2010,04,16,00,26,8.20
2010,04,16,00,27,8.20
2010,04,16,00,28,8.20
2010,04,16,00,29,8.10
2010,04,16,00,30,8.10
2010,04,16,00,31,8.10
2010,04,16,00,32,8.10
2010,04,16,00,33,8.10
2010,04,16,00,34,8.10
2010,04,16,00,35,8.10
2010,04,16,00,36,8.10
2010,04,16,00,37,8.00
2010,04,16,00,38,8.00
2010,04,16,00,39,8.00
2010,04,16,00,40,8.00
2010,04,16,00,41,7.90
2010,04,16,00,42,7.90
2010,04,16,00,43,7.90
2010,04,16,00,44,7.90
2010,04,16,00,45,7.80
2010,04,16,00,46,7.80
2010,04,16,00,47,7.80
2010,04,16,00,48,7.80
2010,04,16,00,49,7.80
2010,04,16,00,50,7.80
2010,04,16,00,51,7.80
2010,04,16,00,52,7.80
2010,04,16,00,53,7.70
2010,04,16,00,54,7.70
2010,04,16,00,55,7.70
2010,04,16,00,56,7.70
2010,04,16,00,57,7.70
2010,04,16,00,58,7.70
2010,04,16,00,59,7.70
2010,04,16,01,00,7.60
2010,04,16,01,01,7.60
2010,04,16,01,02,7.60
2010,04,16,01,03,7.60
2010,04,16,01,04,7.60
2010,04,16,01,05,7.50
2010,04,16,01,06,7.50
2010,04,16,01,07,7.50
2010,04,16,01,08,7.50
2010,04,16,01,09,7.40
2010,04,16,01,10,7.40
2010,04,16,01,11,7.40
2010,04,16,01,12,7.40
2010,04,16,01,13,7.40
2010,04,16,01,14,7.40
2010,04,16,01,15,7.40
2010,04,16,01,16,7.40
2010,04,16,01,17,7.40
2010,04,16,01,18,7.40
2010,04,16,01,19,7.30
2010,04,16,01,20,7.30
2010,04,16,01,21,7.30
2010,04,16,01,22,7.30
2010,04,16,01,23,7.30
2010,04,16,01,24,7.30
2010,04,16,01,25,7.30
2010,04,16,01,26,7.30
2010,04,16,01,27,7.30
2010,04,16,01,28,7.30
2010,04,16,01,29,7.30
2010,04,16,01,30,7.30
2010,04,16,01,31,7.30
2010,04,16,01,32,7.30
2010,04,16,01,33,7.20
2010,04,16,01,34,7.20
2010,04,16,01,35,7.20
2010,04,16,01,36,7.20
2010,04,16,01,37,7.20
2010,04,16,01,38,7.20
2010,04,16,01,39,7.10
2010,04,16,01,40,7.10
2010,04,16,01,41,7.10
2010,04,16,01,42,7.10
2010,04,16,01,43,7.10
2010,04,16,01,44,7.10
2010,04,16,01,45,7.10
2010,04,16,01,46,7.10
2010,04,16,01,47,7.00
2010,04,16,01,48,7.00
2010,04,16,01,49,7.00
2010,04,16,01,50,7.00
2010,04,16,01,51,7.00
2010,04,16,01,52,7.00
2010,04,16,01,53,7.00
2010,04,16,01,54,6.90
2010,04,16,01,55,6.90
2010,04,16,01,56,6.90
2010,04,16,01,57,6.90
2010,04,16,01,58,6.90
2010,04,16,01,59,6.90
2010,04,16,02,00,6.80
2010,04,16,02,01,6.80
2010,04,16,02,02,6.80
2010,04,16,02,03,6.80
2010,04,16,02,04,6.80
2010,04,16,02,05,6.80
2010,04,16,02,06,6.80
2010,04,16,02,07,6.70
2010,04,16,02,08,6.70
2010,04,16,02,09,6.70
2010,04,16,02,10,6.70
2010,04,16,02,11,6.60
2010,04,16,02,12,6.60
2010,04,16,02,13,6.70
2010,04,16,02,14,6.70
2010,04,16,02,15,6.70
2010,04,16,02,16,6.80
2010,04,16,02,17,6.70
2010,04,16,02,18,6.70
2010,04,16,02,19,6.70
2010,04,16,02,20,6.70
2010,04,16,02,21,6.60
2010,04,16,02,22,6.60
2010,04,16,02,23,6.50
2010,04,16,02,24,6.50
2010,04,16,02,25,6.50
2010,04,16,02,26,6.40
2010,04,16,02,27,6.40
2010,04,16,02,28,6.40
2010,04,16,02,29,6.40
2010,04,16,02,30,6.30
2010,04,16,02,31,6.30
2010,04,16,02,32,6.30
2010,04,16,02,33,6.30
2010,04,16,02,34,6.30
2010,04,16,02,35,6.30
2010,04,16,02,36,6.30
2010,04,16,02,37,6.30
2010,04,16,02,38,6.30
2010,04,16,02,39,6.30
2010,04,16,02,40,6.30
2010,04,16,02,41,6.30
2010,04,16,02,42,6.30
2010,04,16,02,43,6.30
2010,04,16,02,44,6.40
2010,04,16,02,45,6.40
2010,04,16,02,46,6.40
2010,04,16,02,47,6.30
2010,04,16,02,48,6.40
2010,04,16,02,49,6.30
2010,04,16,02,50,6.30
2010,04,16,02,51,6.30
2010,04,16,02,52,6.30
2010,04,16,02,53,6.30
2010,04,16,02,54,6.30
2010,04,16,02,55,6.40
2010,04,16,02,56,6.40
2010,04,16,02,57,6.40
2010,04,16,02,58,6.40
2010,04,16,02,59,6.40
2010,04,16,03,00,6.30
2010,04,16,03,01,6.30
2010,04,16,03,02,6.30
2010,04,16,03,03,6.30
2010,04,16,03,04,6.30
2010,04,16,03,05,6.30
2010,04,16,03,06,6.30
2010,04,16,03,07,6.30
2010,04,16,03,08,6.30
2010,04,16,03,09,6.30
2010,04,16,03,10,6.30
2010,04,16,03,11,6.20
2010,04,16,03,12,6.20
2010,04,16,03,13,6.20
2010,04,16,03,14,6.20
2010,04,16,03,15,6.30
2010,04,16,03,16,6.20
2010,04,16,03,17,6.20
2010,04,16,03,18,6.20
2010,04,16,03,19,6.20
2010,04,16,03,20,6.20
2010,04,16,03,21,6.20
2010,04,16,03,22,6.20
2010,04,16,03,23,6.20
2010,04,16,03,24,6.20
2010,04,16,03,25,6.20
2010,04,16,03,26,6.20
2010,04,16,03,27,6.20
2010,04,16,03,28,6.20
2010,04,16,03,29,6.00
2010,04,16,03,30,6.00
2010,04,16,03,31,6.00
2010,04,16,03,32,6.00
2010,04,16,03,33,6.00
2010,04,16,03,34,6.00
2010,04,16,03,35,6.00
2010,04,16,03,36,6.00
2010,04,16,03,37,6.00
2010,04,16,03,38,6.00
2010,04,16,03,39,5.90
2010,04,16,03,40,5.90
2010,04,16,03,41,5.90
2010,04,16,03,42,5.90
2010,04,16,03,43,5.80
2010,04,16,03,44,5.80
2010,04,16,03,45,5.80
2010,04,16,03,46,5.80
2010,04,16,03,47,5.80
2010,04,16,03,48,5.80
2010,04,16,03,49,5.80
2010,04,16,03,50,5.80
2010,04,16,03,51,5.90
2010,04,16,03,52,5.90
2010,04,16,03,53,5.90
2010,04,16,03,54,5.90
2010,04,16,03,55,6.00
2010,04,16,03,56,6.00
2010,04,16,03,57,6.00
2010,04,16,03,58,6.00
2010,04,16,03,59,6.00
2010,04,16,04,00,6.00
2010,04,16,04,01,6.00
2010,04,16,04,02,6.00
2010,04,16,04,03,6.00
2010,04,16,04,04,6.00
2010,04,16,04,05,6.00
2010,04,16,04,06,6.10
2010,04,16,04,07,6.10
2010,04,16,04,08,6.10
2010,04,16,04,09,6.10
2010,04,16,04,10,6.10
2010,04,16,04,11,6.10
2010,04,16,04,12,6.10
2010,04,16,04,13,6.10
2010,04,16,04,14,6.10
2010,04,16,04,15,6.10
2010,04,16,04,16,6.10
2010,04,16,04,17,6.10
2010,04,16,04,18,6.00
2010,04,16,04,19,6.00
2010,04,16,04,20,6.00
2010,04,16,04,21,5.90
2010,04,16,04,22,5.90
2010,04,16,04,23,5.80
2010,04,16,04,24,5.80
2010,04,16,04,25,5.80
2010,04,16,04,26,5.80
2010,04,16,04,27,5.70
2010,04,16,04,28,5.70
2010,04,16,04,29,5.70
2010,04,16,04,30,5.70
2010,04,16,04,31,5.70
2010,04,16,04,32,5.60
2010,04,16,04,33,5.60
2010,04,16,04,34,5.60
2010,04,16,04,35,5.60
2010,04,16,04,36,5.60
2010,04,16,04,37,5.60
2010,04,16,04,38,5.70
2010,04,16,04,39,5.70
2010,04,16,04,40,5.70
2010,04,16,04,41,5.70
2010,04,16,04,42,5.70
2010,04,16,04,43,5.70
2010,04,16,04,44,5.70
2010,04,16,04,45,5.70
2010,04,16,04,46,5.70
2010,04,16,04,47,5.70
2010,04,16,04,48,5.80
2010,04,16,04,49,5.80
2010,04,16,04,50,5.80
2010,04,16,04,51,5.80
2010,04,16,04,52,5.80
2010,04,16,04,53,5.80
2010,04,16,04,54,5.80
2010,04,16,04,55,5.80
2010,04,16,04,56,5.80
2010,04,16,04,57,5.80
2010,04,16,04,58,5.80
2010,04,16,04,59,5.80
2010,04,16,05,00,5.80
2010,04,16,05,01,5.80
2010,04,16,05,02,5.80
2010,04,16,05,03,5.80
2010,04,16,05,04,5.90
2010,04,16,05,05,5.90
2010,04,16,05,06,5.90
2010,04,16,05,07,5.90
2010,04,16,05,08,5.90
2010,04,16,05,09,5.90
2010,04,16,05,10,5.90
2010,04,16,05,11,6.00
2010,04,16,05,12,6.00
2010,04,16,05,13,6.00
2010,04,16,05,14,6.00
2010,04,16,05,15,6.00
2010,04,16,05,16,6.00
2010,04,16,05,17,6.10
2010,04,16,05,18,6.10
2010,04,16,05,19,6.10
2010,04,16,05,20,6.10
2010,04,16,05,21,6.10
2010,04,16,05,22,6.00
2010,04,16,05,23,6.00
2010,04,16,05,24,6.00
2010,04,16,05,25,6.00
2010,04,16,05,26,5.90
2010,04,16,05,27,5.90
2010,04,16,05,28,5.90
2010,04,16,05,29,5.90
2010,04,16,05,30,5.80
2010,04,16,05,31,5.80
2010,04,16,05,32,5.80
2010,04,16,05,33,5.80
2010,04,16,05,34,5.80
2010,04,16,05,35,5.80
2010,04,16,05,36,5.80
2010,04,16,05,37,5.80
2010,04,16,05,38,5.70
2010,04,16,05,39,5.70
2010,04,16,05,40,5.70
2010,04,16,05,41,5.70
2010,04,16,05,42,5.70
2010,04,16,05,43,5.70
2010,04,16,05,44,5.70
2010,04,16,05,45,5.70
2010,04,16,05,46,5.70
2010,04,16,05,47,5.60
2010,04,16,05,48,5.60
2010,04,16,05,49,5.60
2010,04,16,05,50,5.50
2010,04,16,05,51,5.50
2010,04,16,05,52,5.50
2010,04,16,05,53,5.40
2010,04,16,05,54,5.40
2010,04,16,05,55,5.40
2010,04,16,05,56,5.30
2010,04,16,05,57,5.30
2010,04,16,05,58,5.30
2010,04,16,05,59,5.30
2010,04,16,06,00,5.30
2010,04,16,06,01,5.30
2010,04,16,06,02,5.40
2010,04,16,06,03,5.50
2010,04,16,06,04,5.60
2010,04,16,06,05,5.60
2010,04,16,06,06,5.60
2010,04,16,06,07,5.60
2010,04,16,06,08,5.60
2010,04,16,06,09,5.70
2010,04,16,06,10,5.70
2010,04,16,06,11,5.70
2010,04,16,06,12,5.70
2010,04,16,06,13,5.70
2010,04,16,06,14,5.70
2010,04,16,06,15,5.60
2010,04,16,06,16,5.60
2010,04,16,06,17,5.60
2010,04,16,06,18,5.60
2010,04,16,06,19,5.60
2010,04,16,06,20,5.60
2010,04,16,06,21,5.60
2010,04,16,06,22,5.60
2010,04,16,06,23,5.50
2010,04,16,06,24,5.50
2010,04,16,06,25,5.50
2010,04,16,06,26,5.50
2010,04,16,06,27,5.60
2010,04,16,06,28,5.60
2010,04,16,06,29,5.60
2010,04,16,06,30,5.60
2010,04,16,06,31,5.60
2010,04,16,06,32,5.70
2010,04,16,06,33,5.70
2010,04,16,06,34,5.70
2010,04,16,06,35,5.70
2010,04,16,06,36,5.70
2010,04,16,06,37,5.70
2010,04,16,06,38,5.70
2010,04,16,06,39,5.70
2010,04,16,06,40,5.70
2010,04,16,06,41,5.70
2010,04,16,06,42,5.70
2010,04,16,06,43,5.70
2010,04,16,06,44,5.70
2010,04,16,06,45,5.70
2010,04,16,06,46,5.60
2010,04,16,06,47,5.60
2010,04,16,06,48,5.60
2010,04,16,06,49,5.60
2010,04,16,06,50,5.60
2010,04,16,06,51,5.60
2010,04,16,06,52,5.60
2010,04,16,06,53,5.60
2010,04,16,06,54,5.60
2010,04,16,06,55,5.60
2010,04,16,06,56,5.60
2010,04,16,06,57,5.60
2010,04,16,06,58,5.60
2010,04,16,06,59,5.60
2010,04,16,07,00,5.60
2010,04,16,07,01,5.60
2010,04,16,07,02,5.60
2010,04,16,07,03,5.60
2010,04,16,07,04,5.60
2010,04,16,07,05,5.60
2010,04,16,07,06,5.60
2010,04,16,07,07,5.60
2010,04,16,07,08,5.70
2010,04,16,07,09,5.70
2010,04,16,07,10,5.70
2010,04,16,07,11,5.80
2010,04,16,07,12,5.80
2010,04,16,07,13,5.80
2010,04,16,07,14,5.90
2010,04,16,07,15,5.90
2010,04,16,07,16,6.00
2010,04,16,07,17,6.00
2010,04,16,07,18,6.00
2010,04,16,07,19,6.00
2010,04,16,07,20,6.00
2010,04,16,07,21,6.00
2010,04,16,07,22,6.10
2010,04,16,07,23,6.00
2010,04,16,07,24,6.00
2010,04,16,07,25,6.00
2010,04,16,07,26,6.00
2010,04,16,07,27,6.00
2010,04,16,07,28,6.00
2010,04,16,07,29,5.90
2010,04,16,07,30,5.90
2010,04,16,07,31,5.90
2010,04,16,07,32,5.90
2010,04,16,07,33,5.80
2010,04,16,07,34,5.80
2010,04,16,07,35,5.80
2010,04,16,07,36,5.80
2010,04,16,07,37,5.80
2010,04,16,07,38,5.80
2010,04,16,07,39,5.80
2010,04,16,07,40,5.80
2010,04,16,07,41,5.80
2010,04,16,07,42,5.80
2010,04,16,07,43,5.80
2010,04,16,07,44,5.80
2010,04,16,07,45,5.80
2010,04,16,07,46,5.90
2010,04,16,07,47,5.90
2010,04,16,07,48,5.90
2010,04,16,07,49,5.90
2010,04,16,07,50,5.90
2010,04,16,07,51,6.00
2010,04,16,07,52,6.00
2010,04,16,07,53,6.00
2010,04,16,07,54,6.10
2010,04,16,07,55,6.10
2010,04,16,07,56,6.10
2010,04,16,07,57,6.20
2010,04,16,07,58,6.30
2010,04,16,07,59,6.30
2010,04,16,08,00,6.30
2010,04,16,08,01,6.40
2010,04,16,08,02,6.40
2010,04,16,08,03,6.40
2010,04,16,08,04,6.40
2010,04,16,08,05,6.40
2010,04,16,08,06,6.50
2010,04,16,08,07,6.50
2010,04,16,08,08,6.50
2010,04,16,08,09,6.60
2010,04,16,08,10,6.60
2010,04,16,08,11,6.60
2010,04,16,08,12,6.70
2010,04,16,08,13,6.70
2010,04,16,08,14,6.70
2010,04,16,08,15,6.70
2010,04,16,08,16,6.70
2010,04,16,08,17,6.70
2010,04,16,08,18,6.70
2010,04,16,08,19,6.80
2010,04,16,08,20,6.80
2010,04,16,08,21,6.80
2010,04,16,08,22,6.80
2010,04,16,08,23,6.80
2010,04,16,08,24,6.90
2010,04,16,08,25,6.90
2010,04,16,08,26,7.00
2010,04,16,08,27,7.00
2010,04,16,08,28,7.00
2010,04,16,08,29,7.10
2010,04,16,08,30,7.10
2010,04,16,08,31,7.20
2010,04,16,08,32,7.20
2010,04,16,08,33,7.30
2010,04,16,08,34,7.30
2010,04,16,08,35,7.30
2010,04,16,08,36,7.40
2010,04,16,08,37,7.40
2010,04,16,08,38,7.50
2010,04,16,08,39,7.50
2010,04,16,08,40,7.50
2010,04,16,08,41,7.60
2010,04,16,08,42,7.60
2010,04,16,08,43,7.60
2010,04,16,08,44,7.60
2010,04,16,08,45,7.60
2010,04,16,08,46,7.60
2010,04,16,08,47,7.60
2010,04,16,08,48,7.70
2010,04,16,08,49,7.70
2010,04,16,08,50,7.80
2010,04,16,08,51,7.80
2010,04,16,08,52,7.90
2010,04,16,08,53,8.00
2010,04,16,08,54,8.10
2010,04,16,08,55,8.20
2010,04,16,08,56,8.30
2010,04,16,08,57,8.40
2010,04,16,08,58,8.50
2010,04,16,08,59,8.60
2010,04,16,09,00,8.60
2010,04,16,09,01,8.70
2010,04,16,09,02,8.80
2010,04,16,09,03,8.90
2010,04,16,09,04,8.90
2010,04,16,09,05,9.00
2010,04,16,09,06,9.10
2010,04,16,09,07,9.20
2010,04,16,09,08,9.20
2010,04,16,09,09,9.30
2010,04,16,09,10,9.40
2010,04,16,09,11,9.40
2010,04,16,09,12,9.50
2010,04,16,09,13,9.60
2010,04,16,09,14,9.60
2010,04,16,09,15,9.70
2010,04,16,09,16,9.70
2010,04,16,09,17,9.80
2010,04,16,09,18,9.90
2010,04,16,09,19,9.90
2010,04,16,09,20,10.00
2010,04,16,09,21,10.00
2010,04,16,09,22,10.10
2010,04,16,09,23,10.10
2010,04,16,09,24,10.20
2010,04,16,09,25,10.20
2010,04,16,09,26,10.30
2010,04,16,09,27,10.30
2010,04,16,09,28,10.40
2010,04,16,09,29,10.40
2010,04,16,09,30,10.50
2010,04,16,09,31,10.50
2010,04,16,09,32,10.60
2010,04,16,09,33,10.60
2010,04,16,09,34,10.70
2010,04,16,09,35,10.70
2010,04,16,09,36,10.70
2010,04,16,09,37,10.80
2010,04,16,09,38,10.80
2010,04,16,09,39,10.90
2010,04,16,09,40,11.00
2010,04,16,09,41,11.00
2010,04,16,09,42,11.10
2010,04,16,09,43,11.10
2010,04,16,09,44,11.20
2010,04,16,09,45,11.20
2010,04,16,09,46,11.30
2010,04,16,09,47,11.30
2010,04,16,09,48,11.40
2010,04,16,09,49,11.40
2010,04,16,09,50,11.50
2010,04,16,09,51,11.50
2010,04,16,09,52,11.60
2010,04,16,09,53,11.70
2010,04,16,09,54,11.70
2010,04,16,09,55,11.80
2010,04,16,09,56,11.80
2010,04,16,09,57,11.80
2010,04,16,09,58,11.90
2010,04,16,09,59,11.90
2010,04,16,10,00,11.90
2010,04,16,10,01,11.90
2010,04,16,10,02,11.90
2010,04,16,10,03,11.90
2010,04,16,10,04,11.90
2010,04,16,10,05,12.00
2010,04,16,10,06,12.00
2010,04,16,10,07,12.10
2010,04,16,10,08,12.10
2010,04,16,10,09,12.10
2010,04,16,10,10,12.10
2010,04,16,10,11,12.10
2010,04,16,10,12,12.10
2010,04,16,10,13,12.10
2010,04,16,10,14,12.20
2010,04,16,10,15,12.20
2010,04,16,10,16,12.20
2010,04,16,10,17,12.30
2010,04,16,10,18,12.30
2010,04,16,10,19,12.30
2010,04,16,10,20,12.30
2010,04,16,10,21,12.30
2010,04,16,10,22,12.40
2010,04,16,10,23,12.40
2010,04,16,10,24,12.40
2010,04,16,10,25,12.40
2010,04,16,10,26,12.40
2010,04,16,10,27,12.40
2010,04,16,10,28,12.40
2010,04,16,10,29,12.40
2010,04,16,10,30,12.40
2010,04,16,10,31,12.40
2010,04,16,10,32,12.40
2010,04,16,10,33,12.40
2010,04,16,10,34,12.50
2010,04,16,10,35,12.50
2010,04,16,10,36,12.50
2010,04,16,10,37,12.60
2010,04,16,10,38,12.60
2010,04,16,10,39,12.60
2010,04,16,10,40,12.70
2010,04,16,10,41,12.70
2010,04,16,10,42,12.80
2010,04,16,10,43,12.80
2010,04,16,10,44,12.80
2010,04,16,10,45,12.90
2010,04,16,10,46,12.90
2010,04,16,10,47,13.00
2010,04,16,10,48,13.00
2010,04,16,10,49,13.10
2010,04,16,10,50,13.10
2010,04,16,10,51,13.20
2010,04,16,10,52,13.20
2010,04,16,10,53,13.20
2010,04,16,10,54,13.30
2010,04,16,10,55,13.30
2010,04,16,10,56,13.30
2010,04,16,10,57,13.40
2010,04,16,10,58,13.40
2010,04,16,10,59,13.40
2010,04,16,11,00,13.40
2010,04,16,11,01,13.40
2010,04,16,11,02,13.50
2010,04,16,11,03,13.50
2010,04,16,11,04,13.60
2010,04,16,11,05,13.60
2010,04,16,11,06,13.60
2010,04,16,11,07,13.60
2010,04,16,11,08,13.60
2010,04,16,11,09,13.60
2010,04,16,11,10,13.60
2010,04,16,11,11,13.50
2010,04,16,11,12,13.50
2010,04,16,11,13,13.40
2010,04,16,11,14,13.40
2010,04,16,11,15,13.40
2010,04,16,11,16,13.40
2010,04,16,11,17,13.30
2010,04,16,11,18,13.30
2010,04,16,11,19,13.30
2010,04,16,11,20,13.40
2010,04,16,11,21,13.40
2010,04,16,11,22,13.40
2010,04,16,11,23,13.50
2010,04,16,11,24,13.50
2010,04,16,11,25,13.60
2010,04,16,11,26,13.60
2010,04,16,11,27,13.70
2010,04,16,11,28,13.70
2010,04,16,11,29,13.70
2010,04,16,11,30,13.80
2010,04,16,11,31,13.80
2010,04,16,11,32,13.80
2010,04,16,11,33,13.80
2010,04,16,11,34,13.80
2010,04,16,11,35,13.90
2010,04,16,11,36,13.90
2010,04,16,11,37,13.80
2010,04,16,11,38,13.80
2010,04,16,11,39,13.70
2010,04,16,11,40,13.70
2010,04,16,11,41,13.70
2010,04,16,11,42,13.80
2010,04,16,11,43,13.80
2010,04,16,11,44,13.80
2010,04,16,11,45,13.80
2010,04,16,11,46,13.80
2010,04,16,11,47,13.90
2010,04,16,11,48,13.90
2010,04,16,11,49,13.90
2010,04,16,11,50,13.80
2010,04,16,11,51,13.80
2010,04,16,11,52,13.80
2010,04,16,11,53,13.70
2010,04,16,11,54,13.60
2010,04,16,11,55,13.50
2010,04,16,11,56,13.40
2010,04,16,11,57,13.30
2010,04,16,11,58,13.20
2010,04,16,11,59,13.10
2010,04,16,12,00,12.90
2010,04,16,12,01,12.80
2010,04,16,12,02,12.80
2010,04,16,12,03,12.80
2010,04,16,12,04,12.80
2010,04,16,12,05,12.80
2010,04,16,12,06,12.70
2010,04,16,12,07,12.70
2010,04,16,12,08,12.70
2010,04,16,12,09,12.70
2010,04,16,12,10,12.70
2010,04,16,12,11,12.60
2010,04,16,12,12,12.60
2010,04,16,12,13,12.60
2010,04,16,12,14,12.60
2010,04,16,12,15,12.60
2010,04,16,12,16,12.50
2010,04,16,12,17,12.50
2010,04,16,12,18,12.50
2010,04,16,12,19,12.60
2010,04,16,12,20,12.60
2010,04,16,12,21,12.60
2010,04,16,12,22,12.70
2010,04,16,12,23,12.70
2010,04,16,12,24,12.70
2010,04,16,12,25,12.80
2010,04,16,12,26,12.80
2010,04,16,12,27,12.80
2010,04,16,12,28,12.80
2010,04,16,12,29,12.80
2010,04,16,12,30,12.80
2010,04,16,12,31,12.80
2010,04,16,12,32,12.70
2010,04,16,12,33,12.70
2010,04,16,12,34,12.70
2010,04,16,12,35,12.80
2010,04,16,12,36,12.80
2010,04,16,12,37,12.80
2010,04,16,12,38,12.90
2010,04,16,12,39,12.90
2010,04,16,12,40,12.90
2010,04,16,12,41,12.90
2010,04,16,12,42,12.90
2010,04,16,12,43,12.90
2010,04,16,12,44,12.90
2010,04,16,12,45,12.90
2010,04,16,12,46,12.90
2010,04,16,12,47,12.90
2010,04,16,12,48,13.00
2010,04,16,12,49,13.10
2010,04,16,12,50,13.10
2010,04,16,12,51,13.10
2010,04,16,12,52,13.00
2010,04,16,12,53,13.00
2010,04,16,12,54,12.90
2010,04,16,12,55,12.90
2010,04,16,12,56,12.80
2010,04,16,12,57,12.80
2010,04,16,12,58,12.80
2010,04,16,12,59,12.80
2010,04,16,13,00,12.80
2010,04,16,13,01,12.80
2010,04,16,13,02,12.80
2010,04,16,13,03,12.80
2010,04,16,13,04,12.80
2010,04,16,13,05,12.80
2010,04,16,13,06,12.80
2010,04,16,13,07,12.80
2010,04,16,13,08,12.90
2010,04,16,13,09,12.90
2010,04,16,13,10,12.90
2010,04,16,13,11,12.90
2010,04,16,13,12,12.90
2010,04,16,13,13,13.00
2010,04,16,13,14,13.00
2010,04,16,13,15,13.10
2010,04,16,13,16,13.10
2010,04,16,13,17,13.10
2010,04,16,13,18,13.20
2010,04,16,13,19,13.10
2010,04,16,13,20,13.10
2010,04,16,13,21,13.10
2010,04,16,13,22,13.10
2010,04,16,13,23,13.10
2010,04,16,13,24,13.10
2010,04,16,13,25,13.00
2010,04,16,13,26,13.00
2010,04,16,13,27,12.90
2010,04,16,13,28,12.90
2010,04,16,13,29,12.90
2010,04,16,13,30,12.90
2010,04,16,13,31,12.80
2010,04,16,13,32,12.80
2010,04,16,13,33,12.70
2010,04,16,13,34,12.70
2010,04,16,13,35,12.70
2010,04,16,13,36,12.70
2010,04,16,13,37,12.70
2010,04,16,13,38,12.70
2010,04,16,13,39,12.70
2010,04,16,13,40,12.70
2010,04,16,13,41,12.60
2010,04,16,13,42,12.60
2010,04,16,13,43,12.50
2010,04,16,13,44,12.50
2010,04,16,13,45,12.50
2010,04,16,13,46,12.50
2010,04,16,13,47,12.40
2010,04,16,13,48,12.40
2010,04,16,13,49,12.40
2010,04,16,13,50,12.40
2010,04,16,13,51,12.40
2010,04,16,13,52,12.40
2010,04,16,13,53,12.30
2010,04,16,13,54,12.20
2010,04,16,13,55,12.10
2010,04,16,13,56,12.00
2010,04,16,13,57,12.00
2010,04,16,13,58,11.80
2010,04,16,13,59,11.80
2010,04,16,14,00,11.80
2010,04,16,14,01,11.80
2010,04,16,14,02,11.70
2010,04,16,14,03,11.70
2010,04,16,14,04,11.70
2010,04,16,14,05,11.70
2010,04,16,14,06,11.70
2010,04,16,14,07,11.70
2010,04,16,14,08,11.70
2010,04,16,14,09,11.80
2010,04,16,14,10,11.80
2010,04,16,14,11,11.80
2010,04,16,14,12,11.90
2010,04,16,14,13,11.90
2010,04,16,14,14,12.00
2010,04,16,14,15,12.10
2010,04,16,14,16,12.10
2010,04,16,14,17,12.20
2010,04,16,14,18,12.20
2010,04,16,14,19,12.10
2010,04,16,14,20,12.10
2010,04,16,14,21,12.00
2010,04,16,14,22,12.00
2010,04,16,14,23,12.00
2010,04,16,14,24,11.90
2010,04,16,14,25,11.90
2010,04,16,14,26,11.90
2010,04,16,14,27,11.90
2010,04,16,14,28,11.90
2010,04,16,14,29,11.90
2010,04,16,14,30,11.80
2010,04,16,14,31,11.80
2010,04,16,14,32,11.80
2010,04,16,14,33,11.80
2010,04,16,14,34,11.90
2010,04,16,14,35,11.90
2010,04,16,14,36,12.00
2010,04,16,14,37,12.10
2010,04,16,14,38,12.10
2010,04,16,14,39,12.20
2010,04,16,14,40,12.30
2010,04,16,14,41,12.40
2010,04,16,14,42,12.50
2010,04,16,14,43,12.60
2010,04,16,14,44,12.70
2010,04,16,14,45,12.80
2010,04,16,14,46,12.80
2010,04,16,14,47,12.90
2010,04,16,14,48,12.90
2010,04,16,14,49,12.90
2010,04,16,14,50,12.90
2010,04,16,14,51,12.90
2010,04,16,14,52,12.90
2010,04,16,14,53,12.90
2010,04,16,14,54,13.00
2010,04,16,14,55,13.10
2010,04,16,14,56,13.20
2010,04,16,14,57,13.30
2010,04,16,14,58,13.30
2010,04,16,14,59,13.30
2010,04,16,15,00,13.30
2010,04,16,15,01,13.20
2010,04,16,15,02,13.20
2010,04,16,15,03,13.10
2010,04,16,15,04,13.00
2010,04,16,15,05,12.90
2010,04,16,15,06,12.90
2010,04,16,15,07,12.90
2010,04,16,15,08,12.80
2010,04,16,15,09,12.80
2010,04,16,15,10,12.80
2010,04,16,15,11,12.80
2010,04,16,15,12,12.80
2010,04,16,15,13,12.80
2010,04,16,15,14,12.70
2010,04,16,15,15,12.70
2010,04,16,15,16,12.70
2010,04,16,15,17,12.70
2010,04,16,15,18,12.70
2010,04,16,15,19,12.70
2010,04,16,15,20,12.70
2010,04,16,15,21,12.70
2010,04,16,15,22,12.70
2010,04,16,15,23,12.60
2010,04,16,15,24,12.70
2010,04,16,15,25,12.70
2010,04,16,15,26,12.70
2010,04,16,15,27,12.70
2010,04,16,15,28,12.70
2010,04,16,15,29,12.80
2010,04,16,15,30,12.80
2010,04,16,15,31,12.80
2010,04,16,15,32,12.90
2010,04,16,15,33,12.90
2010,04,16,15,34,13.00
2010,04,16,15,35,13.00
2010,04,16,15,36,13.10
2010,04,16,15,37,13.10
2010,04,16,15,38,13.10
2010,04,16,15,39,13.20
2010,04,16,15,40,13.20
2010,04,16,15,41,13.10
2010,04,16,15,42,13.10
2010,04,16,15,43,13.10
2010,04,16,15,44,13.10
2010,04,16,15,45,13.10
2010,04,16,15,46,13.10
2010,04,16,15,47,13.10
2010,04,16,15,48,13.10
2010,04,16,15,49,13.20
2010,04,16,15,50,13.30
2010,04,16,15,51,13.40
2010,04,16,15,52,13.40
2010,04,16,15,53,13.50
2010,04,16,15,54,13.60
2010,04,16,15,55,13.60
2010,04,16,15,56,13.70
2010,04,16,15,57,13.70
2010,04,16,15,58,13.70
2010,04,16,15,59,13.70
2010,04,16,16,00,13.70
2010,04,16,16,01,13.70
2010,04,16,16,02,13.70
2010,04,16,16,03,13.80
2010,04,16,16,04,13.80
2010,04,16,16,05,13.80
2010,04,16,16,06,13.80
2010,04,16,16,07,13.90
2010,04,16,16,08,13.90
2010,04,16,16,09,13.90
2010,04,16,16,10,13.80
2010,04,16,16,11,13.80
2010,04,16,16,12,13.70
2010,04,16,16,13,13.70
2010,04,16,16,14,13.70
2010,04,16,16,15,13.60
2010,04,16,16,16,13.50
2010,04,16,16,17,13.40
2010,04,16,16,18,13.40
2010,04,16,16,19,13.30
2010,04,16,16,20,13.30
2010,04,16,16,21,13.20
2010,04,16,16,22,13.20
2010,04,16,16,23,13.20
2010,04,16,16,24,13.10
2010,04,16,16,25,13.10
2010,04,16,16,26,13.00
2010,04,16,16,27,12.90
2010,04,16,16,28,12.90
2010,04,16,16,29,12.80
2010,04,16,16,30,12.80
2010,04,16,16,31,12.80
2010,04,16,16,32,12.70
2010,04,16,16,33,12.70
2010,04,16,16,34,12.60
2010,04,16,16,35,12.60
2010,04,16,16,36,12.60
2010,04,16,16,37,12.60
2010,04,16,16,38,12.60
2010,04,16,16,39,12.60
2010,04,16,16,40,12.60
2010,04,16,16,41,12.60
2010,04,16,16,42,12.60
2010,04,16,16,43,12.60
2010,04,16,16,44,12.50
2010,04,16,16,45,12.50
2010,04,16,16,46,12.50
2010,04,16,16,47,12.50
2010,04,16,16,48,12.60
2010,04,16,16,49,12.60
2010,04,16,16,50,12.60
2010,04,16,16,51,12.70
2010,04,16,16,52,12.70
2010,04,16,16,53,12.70
2010,04,16,16,54,12.70
2010,04,16,16,55,12.70
2010,04,16,16,56,12.70
2010,04,16,16,57,12.70
2010,04,16,16,58,12.70
2010,04,16,16,59,12.70
2010,04,16,17,00,12.70
2010,04,16,17,01,12.70
2010,04,16,17,02,12.70
2010,04,16,17,03,12.70
2010,04,16,17,04,12.70
2010,04,16,17,05,12.80
2010,04,16,17,06,12.80
2010,04,16,17,07,12.90
2010,04,16,17,08,13.00
2010,04,16,17,09,13.10
2010,04,16,17,10,13.20
2010,04,16,17,11,13.30
2010,04,16,17,12,13.50
2010,04,16,17,13,13.60
2010,04,16,17,14,13.70
2010,04,16,17,15,13.70
2010,04,16,17,16,13.80
2010,04,16,17,17,13.80
2010,04,16,17,18,13.80
2010,04,16,17,19,13.90
2010,04,16,17,20,13.90
2010,04,16,17,21,14.00
2010,04,16,17,22,14.00
2010,04,16,17,23,14.10
2010,04,16,17,24,14.10
2010,04,16,17,25,14.10
2010,04,16,17,26,14.00
2010,04,16,17,27,13.90
2010,04,16,17,28,13.80
2010,04,16,17,29,13.70
2010,04,16,17,30,13.50
2010,04,16,17,31,13.40
2010,04,16,17,32,13.30
2010,04,16,17,33,13.30
2010,04,16,17,34,13.20
2010,04,16,17,35,13.20
2010,04,16,17,36,13.10
2010,04,16,17,37,13.00
2010,04,16,17,38,12.90
2010,04,16,17,39,12.80
2010,04,16,17,40,12.80
2010,04,16,17,41,12.80
2010,04,16,17,42,12.80
2010,04,16,17,43,12.70